Showing default

SKYKRAFT-1, 55041

Orbit data source: Space-Track

SKYKRAFT-1, 55041 is a payload satellite owned by SkyKraft (AU) in SSO that was launched on Tue, 03 Jan 2023 UTC via an FALCON 9 launch vehicle from the Air Force Eastern Test Range (AFETR). Payload-class satellites include a variety of spacecraft equipped with specific instruments for various scientific and technological missions. These include communications satellites like Starlink; space stations such as the ISS; scientific satellites like the Hubble; Earth observation satellites from companies like Planet Labs, Umbra, and HawkEye 360; GPS; miniature CubeSats for education and research; and military/defense satellites.

Loading next visibility...
Identifier
55041, 2023-001AJ
Orbit
SSO
Country
Flag of AUAU / AUS
Related business
Manufacturer
SkyKraft
Mission
Operational Commercial Technology
Bus & Motor
SKYKRAFT CARRIER, AOCS
Mass
~100 kg wet, ~100 kg dry
Launch date (UTC)
2023-01-03 (4 years ago)
Launch vehicle
FALCON 9
Launch site
Air Force Eastern Test Range (AFETR)
Object type
Payload
Rocket body
Debris
Shape & HBR
Box, 0.3 m
Radar Cross Section
0.065 m², Large (>1 m²)

Expand to show TLE details & history
Last TLE update: 11 hours ago

TLE from 11 hours ago
0 SKYKRAFT-1
1 55041U 23001AJ  26255.29674426  .00064580  00000-0  39966-3 0  9990
2 55041  97.3104 336.7178 0002997 117.3771 242.7801 15.76895931206736
Epoch: 2026-09-12T07:07Z
TLE epoch observation values (Epoch: 2026-09-12T07:07:18.704Z)
Latitude
0.00007°
Longitude
-121.41792°
Altitude
343.333 km
Speed
7.702 km/s
True Right ascension
22h 26m 52s
True Declination
0° 00' 00"
Sunlit
Object was in full shadow at epoch
Visualization orbit readout
Latitude
Unknown
Longitude
Unknown
Altitude
Unknown
Speed
Unknown
Apparent Right ascension
Unknown
Apparent Declination
Unknown
Sunlit
N/A
Visualization observer readout
Local Sidereal Time
10:09:44
Azimuth
Unknown
Elevation
Unknown
Doppler factor
Unknown
Orbital elements
Apogee altitude
338.14 km
Perigee altitude
334.115 km
Semi-major axis
6,714.265 km
Eccentricity
0.0003
Inclination
97.3104°
RAAN
336.7178°
Arg. of periapsis
117.3771°
True anomaly
242.74957°
Mean anomaly
242.7801°
Eccentric anomaly
242.76483°
Mean motion
3.94499 °/min
Orbital period
91.26 mins
BSTAR
0.00039966
Loading maneuver chart data...
Computing Atmospheric mass density...

Documentation

Showing up to 5 results
|